Location: Cheching
(60.0667°N, 164.2167°W)
Time: 19:48:52
(UTC+00:00)

DX 1 - Pass Details

Date: 24 January 2021
Orbit: 618 x 631 km, 98.5° (Epoch: 26 February)

Event Time Altitude Azimuth Distance (km) Brightness Sun altitude
Exits shadow 04:59:00 17° 122° (ESE) 1,594 ? -15.3°
Drops below altitude 10° 05:00:32 10° 140° (SE) 1,988 ? -15.5°
Sets 05:03:10 0° 156° (SSE) 2,888 ? -15.8°
